This is the latest recevied weather packets stored in our database for station/object KP4FJC. If no packets are shown the sender has not sent any weather packets the latest 10 day(s).
| Time | Temp. | Humidity | Pressure | Rain* | Wind** | Luminosity | Snow |
|---|---|---|---|---|---|---|---|
| 1777572267 | 30° C | 74% | 1013.2 hPa | 0 mm | - | 411 W/m² | - |
| 1777571962 | 30° C | 74% | 1013.1 hPa | 0 mm | - | 496 W/m² | - |
| 1777571657 | 30.56° C | 74% | 1012.9 hPa | 0 mm | - | 450 W/m² | - |
| 1777571355 | 30.56° C | 74% | 1013 hPa | 0 mm | - | 500 W/m² | - |
| 1777571051 | 30.56° C | 73% | 1013 hPa | 0 mm | - | 495 W/m² | - |
| 1777570747 | 31.11° C | 61% | 1013.2 hPa | 0 mm | - | 487 W/m² | - |
| 1777570444 | 31.11° C | 62% | 1013.1 hPa | 0 mm | - | 465 W/m² | - |
| 1777570139 | 31.11° C | 64% | 1013.2 hPa | 0 mm | - | 542 W/m² | - |
| 1777569835 | 31.11° C | 64% | 1013.5 hPa | 0 mm | - | 524 W/m² | - |
| 1777569531 | 31.11° C | 63% | 1013.4 hPa | 0 mm | - | 503 W/m² | - |
| 1777569228 | 31.11° C | 62% | 1013.5 hPa | 0 mm | - | 482 W/m² | - |
| 1777568925 | 31.11° C | 64% | 1013.4 hPa | 0 mm | - | 462 W/m² | - |
| 1777568621 | 31.11° C | 62% | 1013.4 hPa | 0 mm | - | 489 W/m² | - |
| 1777568319 | 31.67° C | 60% | 1013.4 hPa | 0 mm | - | 570 W/m² | - |
| 1777568015 | 31.11° C | 59% | 1013.7 hPa | 0 mm | - | 534 W/m² | - |
| 1777567712 | 31.67° C | 59% | 1013.5 hPa | 0 mm | - | 542 W/m² | - |
| 1777567409 | 31.11° C | 61% | 1013.8 hPa | 0 mm | - | 475 W/m² | - |
| 1777567107 | 31.11° C | 60% | 1013.5 hPa | 0 mm | - | 489 W/m² | - |
| 1777566804 | 31.67° C | 60% | 1014 hPa | 0 mm | - | 484 W/m² | - |
| 1777566502 | 31.11° C | 63% | 1013.9 hPa | 0 mm | - | 504 W/m² | - |
| 1777566199 | 31.11° C | 63% | 1013.9 hPa | 0 mm | - | 507 W/m² | - |
| 1777565895 | 31.11° C | 64% | 1013.9 hPa | 0 mm | - | 542 W/m² | - |
| 1777565591 | 31.67° C | 62% | 1014 hPa | 0 mm | - | 543 W/m² | - |
| 1777565288 | 31.67° C | 63% | 1014 hPa | 0 mm | - | 574 W/m² | - |
| 1777564984 | 31.67° C | 63% | 1013.8 hPa | 0 mm | - | 559 W/m² | - |
* Rain latest hour (hover to see other rain measurements)
** Current wind speed in m/s (hover to see current wind gust speed)